IU1CYJ Weather Reports


Display with metric or nautical units.
time (UTC)temp
F
wind
direction
speed
MPH
gust
MPH
rain 1hr
in
rain 24hr
in
rain mn
in
humidity
%
barometer
mb
20260506194555 59 252 1.0 7.0 0.00 0.07 0.07 81 1009.4
20260506193056 60 68 1.0 7.0 0.00 0.07 0.07 80 1009.1
20260506191557 61 264 2.0 7.0 0.00 0.07 0.07 78 1008.7
20260506190104 61 258 3.0 7.0 0.00 0.07 0.07 75 1008.3
20260506184558 62 269 1.0 3.0 0.00 0.07 0.07 75 1008.1
20260506183057 62 250 1.0 7.0 0.00 0.07 0.07 74 1007.8
20260506181559 64 253 1.0 6.0 0.00 0.07 0.07 70 1007.3
20260506180052 64 0 2.0 5.0 0.00 0.07 0.07 66 1007.0
20260506174559 65 360 3.0 6.0 0.00 0.07 0.07 65 1006.9
20260506173128 66 283 1.0 8.0 0.00 0.07 0.07 63 1006.5
20260506171556 66 244 2.0 9.0 0.00 0.07 0.07 61 1006.2
20260506170056 66 55 2.0 8.0 0.00 0.07 0.07 60 1006.2
20260506164552 67 204 3.0 9.0 0.00 0.07 0.07 60 1006.0
20260506163056 67 244 2.0 10.0 0.00 0.07 0.07 61 1006.0
20260506161600 68 81 2.0 9.0 0.00 0.07 0.07 61 1006.0
20260506160109 68 237 2.0 8.0 0.00 0.07 0.07 62 1005.8
20260506154601 68 264 2.0 10.0 0.00 0.07 0.07 61 1005.7
20260506153058 68 307 2.0 9.0 0.00 0.07 0.07 61 1005.8
20260506151558 69 243 2.0 9.0 0.00 0.07 0.07 60 1005.8
20260506144610 69 202 1.0 4.0 0.00 0.07 0.07 57 1006.0
20260506143056 69 164 0.0 4.0 0.00 0.07 0.07 54 1005.9
20260506141553 68 0 1.0 4.0 0.00 0.07 0.07 56 1006.1
20260506140106 68 0 0.0 2.0 0.00 0.07 0.07 56 1006.2
20260506134601 68 148 0.0 3.0 0.00 0.07 0.07 59 1006.3
20260506133130 67 159 0.0 4.0 0.00 0.07 0.07 60 1006.5
20260506131554 67 173 0.0 3.0 0.00 0.07 0.07 57 1006.5
20260506130136 66 0 0.0 3.0 0.00 0.07 0.07 58 1006.7
20260506124554 66 165 0.0 3.0 0.00 0.07 0.07 63 1006.8
20260506123052 66 198 0.0 3.0 0.00 0.07 0.07 63 1006.8
20260506121556 65 231 0.0 4.0 0.00 0.07 0.07 64 1006.8
20260506120103 65 259 1.0 4.0 0.00 0.07 0.07 66 1006.9
20260506114554 65 149 1.0 4.0 0.00 0.07 0.07 67 1006.9
20260506113058 64 0 0.0 2.0 0.00 0.07 0.07 69 1007.0
20260506111554 65 189 1.0 3.0 0.00 0.07 0.07 70 1007.1
20260506110057 64 162 1.0 3.0 0.00 0.07 0.07 72 1007.4
20260506104605 64 0 0.0 2.0 0.00 0.07 0.07 72 1007.5
20260506103057 62 236 0.0 2.0 0.00 0.07 0.07 73 1007.5
20260506101550 61 170 0.0 6.0 0.00 0.07 0.07 78 1007.6
20260506100108 60 350 1.0 5.0 0.00 0.07 0.07 79 1007.7
20260506094602 58 279 1.0 6.0 0.00 0.10 0.07 81 1007.9
20260506093053 58 254 2.0 7.0 0.00 0.10 0.07 81 1008.0
20260506091557 58 259 1.0 7.0 0.00 0.10 0.07 83 1008.0
20260506090052 58 252 1.0 8.0 0.00 0.10 0.07 84 1008.0
20260506084559 59 263 2.0 6.0 0.00 0.14 0.07 83 1008.0
20260506083057 59 0 0.0 3.0 0.00 0.14 0.07 85 1008.0
20260506081606 58 0 1.0 3.0 0.00 0.14 0.07 86 1008.0
20260506073055 56 205 0.0 1.0 0.00 0.19 0.07 92 1008.1
20260506071558 56 0 0.0 0.0 0.00 0.19 0.07 93 1008.0
20260506061557 54 0 0.0 1.0 0.00 0.20 0.07 95 1008.5
20260506044600 54 0 0.0 0.0 0.02 0.25 0.05 94 1008.8
20260506043057 54 0 0.0 1.0 0.02 0.25 0.05 94 1008.9
20260506041553 54 0 0.0 1.0 0.03 0.25 0.05 94 1008.9
20260506040057 54 218 0.0 1.0 0.04 0.25 0.04 94 1008.8
20260506034612 54 0 0.0 1.0 0.03 0.24 0.03 94 1009.2
20260506033054 54 0 0.0 1.0 0.03 0.24 0.03 93 1009.2
20260506031555 55 0 0.0 1.0 0.02 0.23 0.02 93 1009.4
20260506030052 55 0 0.0 1.0 0.00 0.21 0.00 93 1009.8
20260506024624 55 0 0.0 0.0 0.00 0.21 0.00 93 1010.0
20260506023105 55 0 0.0 0.0 0.00 0.21 0.00 93 1010.1
20260506021553 55 0 0.0 1.0 0.00 0.21 0.00 93 1010.0
20260506020056 55 0 0.0 1.0 0.00 0.21 0.00 93 1010.2
20260506014552 55 226 0.0 0.0 0.00 0.22 0.00 93 1010.2
20260506013108 55 0 0.0 0.0 0.00 0.22 0.00 93 1010.3
20260506011557 55 0 0.0 0.0 0.00 0.22 0.00 93 1010.4
20260506010118 55 0 0.0 0.0 0.00 0.22 0.00 93 1010.6
20260506004556 55 0 0.0 1.0 0.00 0.22 0.00 92 1011.0
20260506003056 55 0 0.0 0.0 0.00 0.22 0.00 92 1011.3
20260506001602 55 0 0.0 0.0 0.00 0.22 0.00 92 1011.8
20260506000056 55 0 0.0 0.0 0.00 0.22 0.00 92 1012.0
20260505234555 55 0 0.0 0.0 0.00 0.24 0.00 91 1012.1
20260505233105 55 0 0.0 0.0 0.00 0.24 0.00 91 1012.2
20260505231554 55 0 0.0 0.0 0.00 0.24 0.00 91 1012.2
20260505230056 55 168 0.0 0.0 0.00 0.24 0.00 91 1012.3
20260505224552 55 0 0.0 0.0 0.00 0.24 0.00 91 1012.3
20260505223056 56 0 0.0 0.0 0.00 0.24 0.00 90 1012.5
20260505221552 56 0 0.0 1.0 0.00 0.24 0.00 89 1012.6
20260505220055 56 0 0.0 0.0 0.00 0.24 0.00 89 1012.5
20260505214609 56 0 0.0 1.0 0.00 0.24 0.24 89 1012.5
20260505213059 56 0 0.0 0.0 0.00 0.24 0.24 89 1012.9
20260505211553 56 0 0.0 0.0 0.00 0.24 0.24 89 1012.9
20260505210053 56 0 0.0 0.0 0.00 0.24 0.24 89 1012.9
20260505204556 56 164 0.0 0.0 0.00 0.24 0.24 90 1013.0
20260505203054 56 0 0.0 0.0 0.00 0.24 0.24 91 1012.9
20260505201557 56 0 0.0 0.0 0.00 0.24 0.24 90 1013.0
20260505200054 56 0 0.0 0.0 0.00 0.24 0.24 89 1012.9